Regional Weather Roundup
Issued by NWS

Home | Current Version | Previous Version | Graphics & Text | Print | Product List | Glossary On
Versions: 1 2 3 4 5 6 7 8 9 10 11 12 13 14 15 16 17 18 19 20 21 22 23 24 25 26 27 28 29 30 31 32 33 34 35 36 37 38 39 40 41 42 43 44 45 46 47 48 49 50
000
ASUS43 KIND 220259
RWRIN

WEATHER ROUNDUP FOR INDIANA
NATIONAL WEATHER SERVICE INDIANAPOLIS IN
1000 PM EST WED FEB 21 2018

NOTE: "FAIR" INDICATES FEW OR NO CLOUDS BELOW 12,000 FEET WITH NO
SIGNIFICANT WEATHER AND/OR OBSTRUCTIONS TO VISIBILITY.

* - STATION DOES NOT REPORT WEATHER SUCH AS PRECIPITATION OR FOG.

+ - STATION NOT QUALITY CONTROLLED BY THE NATIONAL WEATHER SERVICE.
    USE DATA WITH CAUTION...ESPECIALLY DEWPOINT AND RELATIVE
    HUMIDITY OBSERVATIONS.

INZ001>003-010>013-019-020-220400-
NORTHWEST INDIANA

CITY           SKY/WX    TMP DP  RH WIND       PRES   REMARKS
MICHIGAN CITY+ FAIR      30  27  86 N7        30.64R WCI  23
MONTICELLO +   CLOUDY    33  30  88 NE9       30.57F WCI  25
RENSSELAER +   FAIR      32  27  80 N12       30.59F WCI  23

$$

LMZ046-743>745-220400-
SOUTHERN LAKE MICHIGAN

STATION/POSITION TIME  TEMP    WIND        PRES    WAVE
                       AIR SEA DIR/SP/G            HT
                 (UTC) (F)     (DEG/KT/KT) (MB)    (FT)
MICHIGAN CITY    0230   30      20/ 17/ 19   N/A

$$

INZ004-005-014>016-021>024-220400-
NORTH CENTRAL INDIANA

CITY           SKY/WX    TMP DP  RH WIND       PRES   REMARKS
GOSHEN         FAIR      33  29  85 VRB5      30.59R WCI  29
PERU/GRISSOM   CLOUDY    35  35 100 NE13      30.55F WCI  26
SOUTH BEND     FAIR      28  25  88 N9        30.61S WCI  19
WARSAW +       FAIR      32  30  93 N5        30.59S WCI  27

$$

INZ006>009-017-018-025>027-220400-
NORTHEAST INDIANA

CITY           SKY/WX    TMP DP  RH WIND       PRES   REMARKS
AUBURN +       FAIR      34  32  93 NE8       30.59S WCI  27
FORT WAYNE     CLOUDY    38  33  82 N8        30.59R WCI  32
KENDALLVILLE + FAIR      33  31  91 NE6       30.59S WCI  28

$$

INZ028-029-035-036-043>045-051>053-220400-
WEST CENTRAL INDIANA

CITY           SKY/WX    TMP DP  RH WIND       PRES   REMARKS
CRAWFORDSVL +  CLOUDY    33  33 100 NE10        N/A  WCI  25
GREENCASTLE +  CLOUDY    36  32  87 N12       30.52S WCI  27
LAFAYETTE      MOCLDY    34  30  85 NE9       30.56S WCI  27
TERRE HAUTE    LGT RAIN  36  35  96 NE10      30.52S FOG     WCI  28

$$

INZ030>032-037>040-046>048-054>057-064-065-220400-
CENTRAL INDIANA

CITY           SKY/WX    TMP DP  RH WIND       PRES   REMARKS
COLUMBUS       LGT RAIN  37  37 100 N12       30.48R WCI  30
GREENWOOD *+   CLOUDY   N/A N/A N/A N9        30.51R
INDIANAPOLIS   LGT RAIN  37  35  92 N14       30.52R WCI  28
-EAGLE CREEK   CLOUDY    38  34  85 N10       30.52R WCI  31
KOKOMO +       CLOUDY    35  33  92 NE12      30.56S WCI  27
MT COMFORT *+  CLOUDY    37  37 100 N14       30.52R WCI  29
SHELBYVILLE    LGT RAIN  40  37  89 N10       30.49R WCI  33

$$

INZ033-034-041-042-049-050-058-059-220400-
EAST CENTRAL INDIANA

CITY           SKY/WX    TMP DP  RH WIND       PRES   REMARKS
MUNCIE         CLOUDY    40  36  86 N12       30.54R WCI  33
RICHMOND +     LGT RAIN  37  37 100 E16       30.47F WCI  28

$$

INZ060-061-067>069-081>083-085>088-220400-
SOUTHWEST INDIANA

CITY           SKY/WX    TMP DP  RH WIND       PRES   REMARKS
EVANSVILLE     RAIN      41  41 100 N10       30.45R
HUNTINGBURG +  LGT RAIN  41  40  96 N8        30.44R

$$

INZ062-063-066-070>080-084-089>092-220400-
SOUTH CENTRAL AND SOUTHEAST INDIANA

CITY           SKY/WX    TMP DP  RH WIND       PRES   REMARKS
BLOOMINGTON    LGT RAIN  39  37  92 N10       30.48R WCI  32
FRENCH LICK *+ CLOUDY    37 N/A N/A N5        30.44R WCI  34
SEYMOUR +      LGT RAIN  43  41  93 NE7       30.44F

$$





USA.gov is the U.S. government's official web portal to all federal, state and local government web resources and services.